Big Bear Station Historical Data
Daily Summary for April 21, 2017 Units:  English    Metric   Both
Next Day »
Daily Weekly Monthly Yearly Custom
  High: Low: Average:
Temperature: 73.0 °F 34.0 °F 51.8 °F
Dew Point: 37.6 °F 18.0 °F 28.6 °F
Humidity: 73% 21% 44%
Wind Speed: 5.8mph 0.0mph 2mph
Wind Gust: -999.0mph - -
Wind- - WSW
Pressure: 30.21 in 30.16 in -
Precipitation: 0.00 in    
Historical Graphs
 
 
Tabular Data for April 21, 2017
Time Temperature Dew Point Pressure Wind Wind Speed Wind Gust Humidity Rainfall Rate (Hourly)
00:14 39.2 °F 18.0 °F 30.21 in South 1.7 mph -999.0 mph 42% 0 in
00:29 39.2 °F 21.6 °F 30.21 in SSE 1.7 mph -999.0 mph 49% 0 in
00:44 38.8 °F 24.0 °F 30.21 in Calm   -999.0 mph 55% 0 in
00:59 38.8 °F 24.4 °F 30.20 in SSE 1.7 mph -999.0 mph 56% 0 in
01:15 38.3 °F 22.7 °F 30.19 in Calm   -999.0 mph 53% 0 in
01:30 38.3 °F 19.3 °F 30.20 in SSW 2.2 mph -999.0 mph 46% 0 in
01:45 37.6 °F 20.2 °F 30.20 in Calm   -999.0 mph 49% 0 in
02:01 37.0 °F 21.4 °F 30.19 in ESE 1.7 mph -999.0 mph 53% 0 in
02:16 37.0 °F 23.2 °F 30.19 in South 1.7 mph -999.0 mph 57% 0 in
02:31 36.5 °F 21.4 °F 30.19 in Calm   -999.0 mph 54% 0 in
02:46 36.3 °F 20.3 °F 30.19 in South 1.7 mph -999.0 mph 52% 0 in
03:01 35.8 °F 24.4 °F 30.19 in South 1.7 mph -999.0 mph 63% 0 in
03:17 35.6 °F 26.1 °F 30.19 in SSW 1.7 mph -999.0 mph 68% 0 in
03:32 35.6 °F 24.6 °F 30.19 in Calm   -999.0 mph 64% 0 in
04:02 34.9 °F 26.1 °F 30.19 in Calm   -999.0 mph 70% 0 in
04:17 34.5 °F 25.4 °F 30.19 in South 1.1 mph -999.0 mph 69% 0 in
04:33 34.0 °F 25.9 °F 30.18 in Calm   -999.0 mph 72% 0 in
04:48 34.5 °F 26.7 °F 30.19 in SSE 1.7 mph -999.0 mph 73% 0 in
05:03 34.3 °F 26.5 °F 30.19 in Calm   -999.0 mph 73% 0 in
05:18 34.0 °F 26.3 °F 30.19 in SSW 1.1 mph -999.0 mph 73% 0 in
05:33 34.7 °F 25.9 °F 30.19 in South 2.7 mph -999.0 mph 70% 0 in
05:49 34.2 °F 24.7 °F 30.19 in Calm   -999.0 mph 68% 0 in
06:04 34.5 °F 23.6 °F 30.19 in South 2.2 mph -999.0 mph 64% 0 in
06:19 35.2 °F 19.3 °F 30.19 in SSE 1.7 mph -999.0 mph 52% 0 in
06:35 35.4 °F 18.6 °F 30.19 in Calm   -999.0 mph 50% 0 in
06:50 36.1 °F 20.2 °F 30.19 in South 1.7 mph -999.0 mph 52% 0 in
07:05 36.1 °F 21.5 °F 30.19 in Calm   -999.0 mph 55% 0 in
07:20 36.5 °F 23.5 °F 30.19 in Calm   -999.0 mph 59% 0 in
07:35 37.8 °F 24.7 °F 30.20 in SSW 1.7 mph -999.0 mph 59% 0 in
07:51 38.5 °F 27.8 °F 30.20 in NW 1.7 mph -999.0 mph 65% 0 in
08:07 40.6 °F 30.9 °F 30.20 in Calm   -999.0 mph 68% 0 in
08:22 42.4 °F 28.7 °F 30.20 in Calm   -999.0 mph 58% 0 in
08:37 45.7 °F 27.6 °F 30.20 in SSW 1.7 mph -999.0 mph 49% 0 in
08:52 49.3 °F 25.4 °F 30.20 in WNW 3.2 mph -999.0 mph 39% 0 in
09:08 52.9 °F 26.7 °F 30.20 in NW 4.2 mph -999.0 mph 36% 0 in
09:23 53.8 °F 27.5 °F 30.20 in West 2.2 mph -999.0 mph 36% 0 in
09:38 54.5 °F 27.4 °F 30.20 in NNE 1.7 mph -999.0 mph 35% 0 in
09:53 55.0 °F 27.8 °F 30.19 in NW 4.2 mph -999.0 mph 35% 0 in
10:08 56.3 °F 28.3 °F 30.20 in NW 2.2 mph -999.0 mph 34% 0 in
10:24 57.6 °F 28.7 °F 30.20 in Calm   -999.0 mph 33% 0 in
10:40 59.4 °F 30.3 °F 30.20 in NNW 3.2 mph -999.0 mph 33% 0 in
10:55 60.4 °F 31.2 °F 30.20 in Calm   -999.0 mph 33% 0 in
11:10 62.6 °F 29.9 °F 30.20 in NW 4.2 mph -999.0 mph 29% 0 in
11:25 64.4 °F 30.6 °F 30.19 in NW 5.3 mph -999.0 mph 28% 0 in
11:41 65.7 °F 28.9 °F 30.19 in NNE 3.7 mph -999.0 mph 25% 0 in
11:56 67.6 °F 30.5 °F 30.19 in NNW 4.7 mph -999.0 mph 25% 0 in
12:11 67.6 °F 36.7 °F 30.19 in NNW 3.7 mph -999.0 mph 32% 0 in
12:27 67.6 °F 33.3 °F 30.18 in NNW 2.7 mph -999.0 mph 28% 0 in
12:42 70.2 °F 35.6 °F 30.18 in NNW 5.3 mph -999.0 mph 28% 0 in
12:58 70.5 °F 34.0 °F 30.18 in North 4.2 mph -999.0 mph 26% 0 in
13:13 70.5 °F 34.0 °F 30.18 in NNW 5.3 mph -999.0 mph 26% 0 in
13:28 70.0 °F 34.5 °F 30.18 in North 4.2 mph -999.0 mph 27% 0 in
13:44 71.1 °F 34.5 °F 30.18 in NNW 3.7 mph -999.0 mph 26% 0 in
13:59 71.1 °F 33.5 °F 30.18 in NNW 5.8 mph -999.0 mph 25% 0 in
14:29 71.8 °F 34.1 °F 30.18 in WNW 2.2 mph -999.0 mph 25% 0 in
14:45 72.0 °F 35.2 °F 30.17 in North 4.2 mph -999.0 mph 26% 0 in
15:00 71.2 °F 33.6 °F 30.17 in NNW 3.7 mph -999.0 mph 25% 0 in
15:15 71.2 °F 36.4 °F 30.17 in NW 5.3 mph -999.0 mph 28% 0 in
15:31 70.0 °F 32.6 °F 30.17 in NW 5.3 mph -999.0 mph 25% 0 in
15:46 70.2 °F 33.7 °F 30.17 in NNW 3.2 mph -999.0 mph 26% 0 in
16:01 70.0 °F 35.4 °F 30.16 in NNW 4.7 mph -999.0 mph 28% 0 in
16:17 69.8 °F 32.4 °F 30.16 in West 1.7 mph -999.0 mph 25% 0 in
16:32 69.6 °F 34.1 °F 30.17 in West 1.7 mph -999.0 mph 27% 0 in
16:47 70.3 °F 31.8 °F 30.16 in NW 4.2 mph -999.0 mph 24% 0 in
17:02 72.9 °F 30.7 °F 30.16 in WNW 3.7 mph -999.0 mph 21% 0 in
17:18 73.0 °F 33.0 °F 30.16 in NW 4.7 mph -999.0 mph 23% 0 in
17:33 72.0 °F 31.1 °F 30.16 in South 1.1 mph -999.0 mph 22% 0 in
17:48 72.5 °F 30.3 °F 30.16 in NW 3.7 mph -999.0 mph 21% 0 in
18:03 72.1 °F 32.3 °F 30.16 in WNW 3.7 mph -999.0 mph 23% 0 in
18:19 69.6 °F 37.6 °F 30.16 in NW 3.7 mph -999.0 mph 31% 0 in
18:34 64.4 °F 35.4 °F 30.16 in NW 3.2 mph -999.0 mph 34% 0 in
18:50 61.7 °F 35.8 °F 30.16 in WNW 2.7 mph -999.0 mph 38% 0 in
19:05 60.1 °F 30.9 °F 30.16 in Calm   -999.0 mph 33% 0 in
19:20 58.1 °F 29.9 °F 30.16 in Calm   -999.0 mph 34% 0 in
19:35 55.2 °F 31.9 °F 30.16 in Calm   -999.0 mph 41% 0 in
19:51 53.6 °F 31.6 °F 30.16 in Calm   -999.0 mph 43% 0 in
20:06 52.5 °F 30.6 °F 30.17 in South 1.1 mph -999.0 mph 43% 0 in
20:21 50.9 °F 30.3 °F 30.16 in South 2.2 mph -999.0 mph 45% 0 in
20:36 50.4 °F 29.8 °F 30.17 in Calm   -999.0 mph 45% 0 in
20:52 49.3 °F 30.4 °F 30.18 in Calm   -999.0 mph 48% 0 in
21:07 47.7 °F 30.0 °F 30.18 in South 2.2 mph -999.0 mph 50% 0 in
21:22 46.9 °F 28.7 °F 30.18 in Calm   -999.0 mph 49% 0 in
21:37 46.2 °F 29.1 °F 30.19 in Calm   -999.0 mph 51% 0 in
21:52 45.7 °F 28.6 °F 30.19 in South 1.7 mph -999.0 mph 51% 0 in
22:08 45.0 °F 28.4 °F 30.19 in SSW 1.7 mph -999.0 mph 52% 0 in
22:23 44.4 °F 29.7 °F 30.19 in South 1.1 mph -999.0 mph 56% 0 in
22:39 43.9 °F 30.1 °F 30.19 in Calm   -999.0 mph 58% 0 in
22:54 43.2 °F 29.0 °F 30.19 in SSE 1.1 mph -999.0 mph 57% 0 in
23:09 42.8 °F 28.6 °F 30.19 in SSW 1.7 mph -999.0 mph 57% 0 in
23:25 42.1 °F 28.4 °F 30.19 in South 2.2 mph -999.0 mph 58% 0 in
23:40 41.5 °F 28.2 °F 30.19 in South 1.7 mph -999.0 mph 59% 0 in
23:55 41.2 °F 29.2 °F 30.19 in South 1.7 mph -999.0 mph 62% 0 in
Big Bear CA Weather